Flag for Switzerland Weather past 2 weeks in Bern, Bern, Switzerland

Now
50 °F

Cool.


Feels Like: 48 °F
Forecast: 43 / 62 °F
Wind: 5 mph from Southeast

Location: Bern / Belp

Current Time: Sep 4, 2015 at 4:41:11 AM

Latest Report: Sep 4, 2015 at 4:20 AM


Visibility: N/A

Pressure: 30.04 "Hg (28.17 "Hg at 533m altitude)

Humidity: 100%

Dew point: 50 °F

Location of BernLocation

Historic Weather in Bern — Graph

°F

Bern temperature yesterday

Maximum temperature yesterday: 68 °F (at 4:20 PM)
Minimum temperature yesterday: 52 °F (at 3:20 AM)
Average temperature yesterday: 60 °F

Past Weeks' High & Low Weather Summary

 TemperatureHumidityPressure
High90 °F (Aug 29, 6:20 PM)100% (Aug 20, 3:20 AM)30.27 "Hg (Aug 20, 3:20 AM)
Low48 °F (Aug 20, 3:20 AM)31% (Aug 31, 4:20 PM)29.74 "Hg (Aug 24, 4:20 AM)
Average65 °F79%30.05 "Hg
* Reported Aug 20 3:20 AM — Sep 4 3:20 AM, Bern, Weather by CustomWeather, © 2015

Note: Actual official high and low records may vary slightly from our data, if they occured in-between our weather recording intervals... More about our weather records

Advertising

Bern weather history for previous 24 hours

 ConditionsComfort  
Time TempWeatherWind HumidityBarometerVisibility
3:20 AM
Fri, Sep 4
54 °FPassing clouds.3 mph100%30.04 "HgN/A
2:50 AM54 °FPartly cloudy.6 mph100%30.04 "HgN/A
2:20 AM55 °FPassing clouds.5 mph94%30.04 "HgN/A
1:50 AM55 °FPassing clouds.7 mph94%30.04 "HgN/A
1:20 AM55 °FMostly cloudy.5 mph100%30.04 "HgN/A
12:50 AM55 °FPassing clouds.7 mph100%30.04 "HgN/A
12:20 AM57 °FLight rain. Overcast.8 mph94%30.04 "HgN/A
11:20 PM
Thu, Sep 3
57 °FPassing clouds.1 mph100%30.01 "HgN/A
10:50 PM57 °FPassing clouds.2 mph94%30.01 "HgN/A
10:20 PM57 °FPassing clouds.2 mph94%30.01 "HgN/A
9:50 PM57 °FPassing clouds.6 mph100%30.01 "HgN/A
9:20 PM57 °FPartly cloudy.3 mph100%30.01 "HgN/A
8:50 PM57 °FPartly sunny.5 mph94%30.01 "HgN/A
8:20 PM59 °FSprinkles. Partly sunny.6 mph88%30.01 "HgN/A
7:50 PM61 °FPartly sunny.2 mph83%29.98 "HgN/A
7:20 PM63 °FPartly sunny.3 mph68%29.98 "HgN/A
6:50 PM66 °FPartly sunny.5 mph56%29.98 "HgN/A
6:20 PM66 °FPartly sunny.3 mph56%29.98 "HgN/A
5:50 PM66 °FPartly sunny.6 mph52%29.98 "HgN/A
5:20 PM66 °FPartly sunny.6 mph52%29.98 "HgN/A
4:50 PM66 °FPartly sunny.8 mph56%29.98 "HgN/A
4:20 PM68 °FPartly sunny.7 mph53%29.98 "HgN/A
3:50 PM66 °FPartly sunny.3 mph52%29.98 "HgN/A
3:20 PM66 °FPartly sunny.6 mph52%29.98 "HgN/A
2:50 PM66 °FBroken clouds.1 mph64%29.98 "HgN/A
2:20 PM64 °FPartly sunny.2 mph60%29.98 "HgN/A
1:50 PM64 °FOvercast.3 mph60%29.98 "HgN/A
1:20 PM64 °FMore clouds than sun.3 mph64%29.98 "HgN/A
12:50 PM66 °FMore clouds than sun.5 mph64%29.98 "HgN/A
12:20 PM64 °FPartly sunny.3 mph68%29.98 "HgN/A
11:50 AM63 °FPartly sunny.5 mph68%29.98 "HgN/A
11:20 AM63 °FPartly sunny.5 mph73%29.98 "HgN/A
10:50 AM61 °FBroken clouds.6 mph77%29.98 "HgN/A
10:20 AM61 °FBroken clouds.3 mph88%30.01 "HgN/A
9:50 AM59 °FBroken clouds.No wind94%30.01 "HgN/A
9:20 AM59 °FBroken clouds.No wind94%29.98 "HgN/A
8:50 AM57 °FBroken clouds.1 mph94%29.98 "HgN/A
8:20 AM55 °FPartly sunny.1 mph100%29.98 "HgN/A
7:50 AM55 °FPassing clouds.1 mph100%29.98 "HgN/A
7:20 AM55 °FPassing clouds.2 mph100%29.98 "HgN/A
6:50 AM54 °FPartly cloudy.2 mph100%29.98 "HgN/A
6:20 AM55 °FPartly cloudy.2 mph100%29.98 "HgN/A
5:20 AM52 °FPassing clouds.3 mph100%29.98 "HgN/A
4:50 AM52 °FPassing clouds.2 mph100%29.98 "Hg6 mi
4:20 AM54 °FPassing clouds.2 mph100%29.98 "Hg5 mi
Weather by CustomWeather, © 2015

See weather overviewHow to use our weather pages